| time (UTC) | temp C | wind direction | speed KPH | gust KPH | rain 1hr cm | rain 24hr cm | rain mn cm | humidity % | barometer mb |
| 20260508004602 | 13 | 210 | 0.0 | 0.0 | 0.00 | 0.00 | 0.00 | 54 | 1014.4 |
| 20260508003101 | 13 | 210 | 0.0 | 0.0 | 0.00 | 0.00 | 0.00 | 57 | 1014.6 |
| 20260508001546 | 14 | 210 | 0.0 | 1.6 | 0.00 | 0.00 | 0.00 | 60 | 1014.6 |
| 20260508000040 | 15 | 122 | 0.0 | 0.0 | 0.00 | 0.00 | 0.00 | 62 | 1014.6 |
| 20260507234536 | 16 | 122 | 0.0 | 1.6 | 0.00 | 0.00 | 0.00 | 61 | 1014.6 |
| 20260507233032 | 16 | 122 | 0.0 | 1.6 | 0.00 | 0.00 | 0.00 | 61 | 1014.6 |
| 20260507231527 | 16 | 32 | 0.0 | 3.2 | 0.00 | 0.00 | 0.00 | 61 | 1014.7 |
| 20260507230023 | 16 | 249 | 0.0 | 0.0 | 0.00 | 0.00 | 0.00 | 61 | 1014.9 |
| 20260507224519 | 16 | 248 | 0.0 | 0.0 | 0.00 | 0.00 | 0.00 | 61 | 1015.0 |
| 20260507223014 | 16 | 244 | 0.0 | 0.0 | 0.00 | 0.00 | 0.00 | 61 | 1015.1 |
| 20260507221509 | 17 | 227 | 0.0 | 1.6 | 0.00 | 0.00 | 0.00 | 60 | 1015.2 |
| 20260507220005 | 17 | 111 | 0.0 | 1.6 | 0.00 | 0.00 | 0.00 | 59 | 1015.3 |
| 20260507214500 | 17 | 116 | 0.0 | 1.6 | 0.00 | 0.00 | 0.00 | 61 | 1015.4 |
| 20260507213108 | 17 | 337 | 0.0 | 1.6 | 0.00 | 0.00 | 0.00 | 60 | 1015.5 |
| 20260507211553 | 16 | 49 | 0.0 | 1.6 | 0.00 | 0.00 | 0.00 | 61 | 1015.7 |
| 20260507210053 | 17 | 36 | 0.0 | 1.6 | 0.00 | 0.00 | 0.00 | 61 | 1015.9 |
| 20260507204556 | 17 | 333 | 0.0 | 1.6 | 0.00 | 0.00 | 0.00 | 61 | 1016.1 |
| 20260507203040 | 16 | 46 | 0.0 | 1.6 | 0.00 | 0.00 | 0.00 | 62 | 1016.3 |
| 20260507201539 | 16 | 358 | 0.0 | 1.6 | 0.00 | 0.00 | 0.00 | 61 | 1016.5 |
| 20260507200036 | 16 | 301 | 0.0 | 1.6 | 0.00 | 0.00 | 0.00 | 61 | 1016.5 |
| 20260507194526 | 16 | 212 | 0.0 | 4.8 | 0.00 | 0.00 | 0.00 | 61 | 1016.5 |
| 20260507193027 | 16 | 193 | 0.0 | 4.8 | 0.00 | 0.00 | 0.00 | 62 | 1016.6 |
| 20260507191517 | 15 | 352 | 0.0 | 1.6 | 0.00 | 0.00 | 0.00 | 62 | 1016.7 |
| 20260507190028 | 15 | 155 | 0.0 | 4.8 | 0.00 | 0.00 | 0.00 | 62 | 1016.7 |
| 20260507184508 | 15 | 3 | 0.0 | 1.6 | 0.00 | 0.00 | 0.00 | 62 | 1016.8 |
| 20260507183011 | 15 | 6 | 0.0 | 1.6 | 0.00 | 0.00 | 0.00 | 62 | 1016.8 |
| 20260507181559 | 15 | 27 | 0.0 | 1.6 | 0.00 | 0.00 | 0.00 | 62 | 1016.8 |
| 20260507180104 | 15 | 304 | 0.0 | 3.2 | 0.00 | 0.00 | 0.00 | 62 | 1016.8 |
| 20260507174552 | 15 | 296 | 0.0 | 1.6 | 0.00 | 0.00 | 0.00 | 62 | 1016.9 |
| 20260507173053 | 14 | 343 | 0.0 | 1.6 | 0.00 | 0.00 | 0.00 | 62 | 1016.9 |
| 20260507171544 | 15 | 290 | 0.0 | 0.0 | 0.00 | 0.00 | 0.00 | 62 | 1016.9 |
| 20260507170039 | 15 | 266 | 0.0 | 0.0 | 0.00 | 0.00 | 0.00 | 62 | 1016.9 |
| 20260507164537 | 14 | 266 | 0.0 | 0.0 | 0.00 | 0.00 | 0.00 | 62 | 1016.9 |
| 20260507163031 | 13 | 350 | 0.0 | 1.6 | 0.00 | 0.00 | 0.00 | 62 | 1017.1 |
| 20260507161527 | 13 | 11 | 0.0 | 0.0 | 0.00 | 0.00 | 0.00 | 62 | 1017.2 |
| 20260507160021 | 14 | 12 | 0.0 | 0.0 | 0.00 | 0.00 | 0.00 | 62 | 1017.2 |
| 20260507154516 | 13 | 12 | 0.0 | 0.0 | 0.00 | 0.00 | 0.00 | 52 | 1017.3 |
| 20260507153012 | 13 | 6 | 0.0 | 0.0 | 0.00 | 0.00 | 0.00 | 1 | 1017.3 |
| 20260507151507 | 11 | 5 | 0.0 | 0.0 | 0.00 | 0.00 | 0.00 | 1 | 1017.4 |
| 20260507150003 | 8 | 5 | 0.0 | 0.0 | 0.00 | 0.00 | 0.00 | 1 | 1017.4 |
| 20260507144559 | -17 | 0.0 | 0.0 | 0.00 | 0.00 | 0.00 | 1017.4 | ||
| 20260507143054 | -17 | 0.0 | 0.0 | 0.00 | 0.00 | 0.00 | 1017.3 | ||
| 20260507141554 | -17 | 0.0 | 0.0 | 0.00 | 0.00 | 0.00 | 1017.4 | ||
| 20260507140104 | -17 | 0.0 | 0.0 | 0.00 | 0.00 | 0.00 | 1017.2 | ||
| 20260507134541 | -17 | 0.0 | 0.0 | 0.00 | 0.00 | 0.00 | 1017.1 | ||
| 20260507133037 | -17 | 0.0 | 0.0 | 0.00 | 0.00 | 0.00 | 1017.1 | ||
| 20260507131535 | -17 | 0.0 | 0.0 | 0.00 | 0.00 | 0.00 | 1017.1 | ||
| 20260507130027 | -17 | 0.0 | 0.0 | 0.00 | 0.00 | 0.00 | 1017.1 | ||
| 20260507124525 | 5 | 1 | 0.0 | 0.0 | 0.00 | 0.00 | 0.00 | 1 | 1017.1 |
| 20260507123019 | 6 | 5 | 0.0 | 1.6 | 0.00 | 0.00 | 0.00 | 1 | 1017.2 |
| 20260507121514 | 6 | 5 | 0.0 | 1.6 | 0.00 | 0.00 | 0.00 | 1 | 1017.2 |
| 20260507120010 | 6 | 5 | 0.0 | 1.6 | 0.00 | 0.00 | 0.00 | 1 | 1017.3 |
| 20260507114506 | 6 | 5 | 0.0 | 0.0 | 0.00 | 0.00 | 0.00 | 1 | 1017.3 |
| 20260507113002 | 7 | 5 | 0.0 | 1.6 | 0.00 | 0.00 | 0.00 | 1 | 1017.4 |
| 20260507111557 | 7 | 248 | 0.0 | 0.0 | 0.00 | 0.00 | 0.00 | 1 | 1017.3 |
| 20260507110053 | 7 | 248 | 0.0 | 1.6 | 0.00 | 0.00 | 0.00 | 1 | 1017.2 |
| 20260507104548 | 7 | 255 | 0.0 | 0.0 | 0.00 | 0.00 | 0.00 | 1 | 1017.3 |
| 20260507103043 | 7 | 255 | 0.0 | 0.0 | 0.00 | 0.00 | 0.00 | 1 | 1017.4 |
| 20260507101545 | 7 | 255 | 0.0 | 0.0 | 0.00 | 0.00 | 0.00 | 1 | 1017.5 |
| 20260507100037 | 7 | 255 | 0.0 | 0.0 | 0.00 | 0.00 | 0.00 | 1 | 1017.6 |
| 20260507094531 | 7 | 254 | 0.0 | 0.0 | 0.00 | 0.00 | 0.00 | 1 | 1017.5 |
| 20260507093036 | 8 | 255 | 0.0 | 0.0 | 0.00 | 0.00 | 0.00 | 1 | 1017.5 |
| 20260507091522 | 8 | 255 | 0.0 | 0.0 | 0.00 | 0.00 | 0.00 | 1 | 1017.5 |
| 20260507090028 | 8 | 255 | 0.0 | 0.0 | 0.00 | 0.00 | 0.00 | 1 | 1017.8 |
| 20260507084513 | 8 | 255 | 0.0 | 0.0 | 0.00 | 0.00 | 0.00 | 1 | 1017.8 |
| 20260507083015 | 8 | 254 | 0.0 | 1.6 | 0.00 | 0.00 | 0.00 | 1 | 1017.6 |
| 20260507081504 | 8 | 178 | 0.0 | 0.0 | 0.00 | 0.00 | 0.00 | 1 | 1017.7 |
| 20260507080135 | 8 | 178 | 0.0 | 0.0 | 0.00 | 0.00 | 0.00 | 1 | 1017.5 |
| 20260507074603 | 8 | 178 | 0.0 | 0.0 | 0.00 | 0.00 | 0.00 | 1 | 1017.4 |
| 20260507073059 | 9 | 178 | 0.0 | 0.0 | 0.00 | 0.00 | 0.00 | 1 | 1017.3 |
| 20260507071559 | 9 | 178 | 0.0 | 0.0 | 0.00 | 0.00 | 0.00 | 1 | 1017.2 |
| 20260507070042 | 10 | 178 | 0.0 | 0.0 | 0.00 | 0.00 | 0.00 | 1 | 1017.3 |
| 20260507064537 | 10 | 177 | 0.0 | 0.0 | 0.00 | 0.00 | 0.00 | 1 | 1017.2 |
| 20260507063038 | 10 | 177 | 0.0 | 0.0 | 0.00 | 0.00 | 0.00 | 1 | 1017.2 |
| 20260507061529 | 10 | 160 | 0.0 | 0.0 | 0.00 | 0.00 | 0.00 | 1 | 1017.3 |
| 20260507060024 | 10 | 163 | 0.0 | 0.0 | 0.00 | 0.00 | 0.00 | 1 | 1017.3 |
| 20260507054520 | 10 | 163 | 0.0 | 0.0 | 0.00 | 0.00 | 0.00 | 1 | 1017.4 |
| 20260507053016 | 10 | 163 | 0.0 | 0.0 | 0.00 | 0.00 | 0.00 | 1 | 1017.3 |
| 20260507051511 | 10 | 163 | 0.0 | 0.0 | 0.00 | 0.00 | 0.00 | 1 | 1017.4 |
| 20260507050008 | 10 | 163 | 0.0 | 0.0 | 0.00 | 0.00 | 0.00 | 1 | 1017.4 |
| 20260507044502 | 10 | 163 | 0.0 | 0.0 | 0.00 | 0.00 | 0.00 | 1 | 1017.5 |
| 20260507043059 | 11 | 243 | 0.0 | 1.6 | 0.00 | 0.00 | 0.00 | 1 | 1017.4 |
| 20260507041600 | 11 | 246 | 0.0 | 0.0 | 0.00 | 0.00 | 0.00 | 1 | 1017.3 |
| 20260507040058 | 11 | 126 | 0.0 | 1.6 | 0.00 | 0.00 | 0.00 | 1 | 1017.3 |
| 20260507034554 | 11 | 140 | 0.0 | 1.6 | 0.00 | 0.00 | 0.00 | 1 | 1017.2 |
| 20260507033043 | 11 | 141 | 0.0 | 0.0 | 0.00 | 0.00 | 0.00 | 1 | 1017.0 |
| 20260507031535 | 11 | 114 | 0.0 | 1.6 | 0.00 | 0.00 | 0.00 | 1 | 1016.9 |
| 20260507030032 | 11 | 82 | 0.0 | 0.0 | 0.00 | 0.00 | 0.00 | 1 | 1016.9 |
| 20260507024526 | 11 | 82 | 0.0 | 0.0 | 0.00 | 0.00 | 0.00 | 1 | 1017.0 |
| 20260507023022 | 12 | 82 | 0.0 | 0.0 | 0.00 | 0.00 | 0.00 | 1 | 1016.9 |
| 20260507021517 | 12 | 196 | 0.0 | 0.0 | 0.00 | 0.00 | 0.00 | 1 | 1017.0 |
| 20260507020013 | 12 | 196 | 0.0 | 0.0 | 0.00 | 0.00 | 0.00 | 1 | 1017.0 |
| 20260507014509 | 12 | 165 | 0.0 | 0.0 | 0.00 | 0.00 | 0.00 | 1 | 1016.9 |
| 20260507013005 | 12 | 165 | 0.0 | 0.0 | 0.00 | 0.00 | 0.00 | 5 | 1016.8 |
| 20260507011605 | 12 | 165 | 0.0 | 0.0 | 0.00 | 0.00 | 0.00 | 4 | 1016.8 |
| 20260507010056 | 12 | 166 | 0.0 | 0.0 | 0.00 | 0.00 | 0.00 | 7 | 1016.8 |